Weather History for Toluca Jose Maria, Mexico

Change the Weather History Date:

Tuesday, August 27, 2013

  Actual Average Record
Temperature  
Mean Temperature 60 °F -  
Max Temperature 66 °F 67 °F 75 °F (2005)
Min Temperature 53 °F 48 °F 44 °F (2000)
Degree Days  
Heating Degree Days 6    
Growing Degree Days 10 (Base 50)    
Moisture  
Dew Point 51 °F    
Average Humidity 78    
Maximum Humidity 94    
Minimum Humidity 59    
Precipitation  
Precipitation 0.00 in - - ()
Sea Level Pressure  
Sea Level Pressure 30.17 in    
Wind  
Wind Speed 9 mph ()    
Max Wind Speed 17 mph    
Max Gust Speed -    
Visibility 6.3 miles    
Events Rain    
Averages and records for this station are not official NWS values.
T = Trace of Precipitation, MM = Missing Value Source: Averaged Metar Reports

Daily Weather History Graph

Daily Weather History Graph

Search for Another Location

Airport:

Trip Planner

Search our weather history database for the weather conditions in past years. The results will help you decide how hot, cold, wet, or windy it might be!

Date:

Astronomy

Aug. 27, 2013 Rise Set
Actual Time 7:22 AM CDT 7:56 PM CDT
Civil Twilight 6:59 AM CDT 8:19 PM CDT
Nautical Twilight 6:33 AM CDT 8:45 PM CDT
Astronomical Twilight 6:06 AM CDT 9:11 PM CDT
Moon 12:06 AM CDT (8/27) 1:22 PM CDT (8/27)
Length of Visible Light 13h 19m
Length of Day
12h 34m
Waning Gibbous, 57% of the Moon is Illuminated
Aug 27
Waning Gibbous
Aug 28
Last Quarter
Sep 5
New
Sep 12
First Quarter
Sep 19
Full

Hourly Weather History & Observations

Time (CDT) Temp. Dew Point Humidity Pressure Visibility Wind Dir Wind Speed Gust Speed Precip Events Conditions
12:45 AM 53.6 °F 51.8 °F 94% 29.83 in 4.0 mi SSE 9.2 mph - N/A Rain Light Rain
1:45 AM 53.6 °F 51.8 °F 94% 30.35 in 5.0 mi SSE 8.1 mph - N/A   Overcast
2:45 AM 53.6 °F 50.0 °F 88% 30.33 in 7.0 mi SSE 8.1 mph - N/A   Mostly Cloudy
3:45 AM 53.6 °F 50.0 °F 88% 29.78 in 7.0 mi SE 9.2 mph - N/A   Mostly Cloudy
4:45 AM 53.6 °F 50.0 °F 88% 30.31 in 7.0 mi SSE 9.2 mph - N/A   Mostly Cloudy
5:45 AM 53.6 °F 50.0 °F 88% 30.33 in 7.0 mi SE 9.2 mph - N/A   Mostly Cloudy
6:45 AM 53.6 °F 50.0 °F 88% 29.79 in 7.0 mi SSE 8.1 mph - N/A   Mostly Cloudy
7:45 AM 53.6 °F 50.0 °F 88% 30.34 in 6.0 mi SE 5.8 mph - N/A   Overcast
8:42 AM 55.4 °F 51.8 °F 88% 30.37 in 5.0 mi SE 9.2 mph - N/A   Overcast
9:40 AM 59.0 °F 53.6 °F 82% 29.81 in 6.0 mi SE 13.8 mph - N/A   Overcast
10:50 AM 60.8 °F 53.6 °F 77% 30.39 in 6.0 mi SSE 11.5 mph - N/A   Mostly Cloudy
11:47 AM 62.6 °F 53.6 °F 72% 30.39 in 7.0 mi South 15.0 mph - N/A   Mostly Cloudy
12:41 PM 64.4 °F 51.8 °F 64% 29.79 in 7.0 mi SSE 13.8 mph - N/A   Mostly Cloudy
1:44 PM 66.2 °F 53.6 °F 64% 30.36 in 7.0 mi South 13.8 mph - N/A   Mostly Cloudy
2:45 PM 64.4 °F 51.8 °F 64% 30.35 in 7.0 mi South 17.3 mph - N/A   Mostly Cloudy
3:42 PM 64.4 °F 51.8 °F 64% 29.74 in 7.0 mi South 9.2 mph - N/A   Mostly Cloudy
4:46 PM 64.4 °F 50.0 °F 59% 30.31 in 7.0 mi South 11.5 mph - N/A   Mostly Cloudy
5:44 PM 62.6 °F 50.0 °F 63% 30.31 in 7.0 mi South 13.8 mph - N/A   Mostly Cloudy
6:43 PM 60.8 °F 50.0 °F 68% 29.74 in 7.0 mi SSE 13.8 mph - N/A   Mostly Cloudy
7:47 PM 59.0 °F 51.8 °F 77% 30.36 in 7.0 mi South 9.2 mph - N/A Rain Light Rain
8:41 PM 57.2 °F 51.8 °F 82% 30.37 in 7.0 mi SSW 9.2 mph - N/A   Mostly Cloudy
9:49 PM 57.2 °F 51.8 °F 82% 29.81 in 5.0 mi SSE 8.1 mph - N/A   Mostly Cloudy
10:42 PM 55.4 °F 51.8 °F 88% 30.40 in 5.0 mi SSE 9.2 mph - N/A   Mostly Cloudy
11:43 PM 55.4 °F 46.4 °F 72% 30.40 in 4.0 mi South 11.5 mph - N/A   Mostly Cloudy